Port Hardy, British Columbia

1:38 AM PST on February 11, 2016 (GMT -0800)
Port Hardy

Weather History for CYZT - February, 2013

Change the Weather History Date:

Monday, February 18, 2013

  Actual Average Record
Temperature  
Mean Temperature 40 °F -  
Max Temperature 42 °F 46 °F 55 °F (2015)
Min Temperature 37 °F 35 °F 23 °F (2006)
Degree Days  
Heating Degree Days 26    
Moisture  
Dew Point 36 °F    
Average Humidity 83    
Maximum Humidity 100    
Minimum Humidity 70    
Precipitation  
Precipitation 0.01 in 0.20 in - ()
Sea Level Pressure  
Sea Level Pressure 29.84 in    
Wind  
Wind Speed 8 mph ()    
Max Wind Speed 18 mph    
Max Gust Speed 30 mph    
Visibility 17.5 miles    
Events Rain    
Averages and records for this station are not official NWS values.
T = Trace of Precipitation, MM = Missing Value Source: Averaged Metar Reports

Daily Weather History Graph

Daily Weather History Graph

Search for Another Location

Airport or City:

Trip Planner

Search our weather history database for the weather conditions in past years. The results will help you decide how hot, cold, wet, or windy it might be!

Date:

Astronomy

Feb. 18, 2013 Rise Set
Actual Time 7:34 AM PST 5:52 PM PST
Civil Twilight 7:01 AM PST 6:26 PM PST
Nautical Twilight 6:23 AM PST 7:04 PM PST
Astronomical Twilight 5:45 AM PST 7:42 PM PST
Moon 11:23 AM PST (2/18) 2:38 AM PST (2/18)
Length of Visible Light 11h 24m
Length of Day
10h 17m
First Quarter, 59% of the Moon is Illuminated
Feb 18
First Quarter
Feb 25
Full
Mar 4
Last Quarter
Mar 11
New
Mar 19
First Quarter

Hourly Weather History & Observations

Time (PST) Temp. Windchill Dew Point Humidity Pressure Visibility Wind Dir Wind Speed Gust Speed Precip Events Conditions
12:00 AM 37.4 °F - 37.4 °F 100% 30.05 in 15.0 mi Calm Calm - N/A   Mostly Cloudy
1:00 AM 37.4 °F - 35.6 °F 93% 30.03 in 15.0 mi Calm Calm - N/A   Mostly Cloudy
2:00 AM 37.4 °F - 35.6 °F 93% 30.01 in 15.0 mi Calm Calm - N/A   Mostly Cloudy
3:00 AM 39.2 °F 34.2 °F 33.8 °F 81% 29.99 in 15.0 mi SE 6.9 mph - N/A   Overcast
4:00 AM 38 °F - 35 °F 83% 29.96 in 15 mi South 4.6 mph - -   Overcast
4:00 AM 39.2 °F 35.9 °F 35.6 °F 87% 29.96 in 15.0 mi South 4.6 mph - N/A   Overcast
5:00 AM 39.2 °F 35.0 °F 33.8 °F 81% 29.94 in 15.0 mi South 5.8 mph - N/A   Overcast
6:00 AM 39.2 °F 35.0 °F 33.8 °F 81% 29.91 in 15.0 mi SSW 5.8 mph - N/A   Overcast
7:00 AM 41.0 °F 36.4 °F 35.6 °F 81% 29.90 in 15.0 mi SE 6.9 mph - N/A   Overcast
8:00 AM 41.0 °F 33.9 °F 33.8 °F 76% 29.88 in 20.0 mi SE 12.7 mph - N/A   Overcast
9:00 AM 41.0 °F 34.3 °F 35.6 °F 81% 29.86 in 20.0 mi ESE 11.5 mph - N/A   Overcast
10:00 AM 42 °F - 35 °F 70% 29.84 in 19 mi East 12.7 mph - -   Scattered Clouds
10:00 AM 41.0 °F 33.9 °F 35.6 °F 81% 29.84 in 20.0 mi East 12.7 mph 21.9 mph N/A   Mostly Cloudy
11:00 AM 41.0 °F 33.9 °F 35.6 °F 81% 29.82 in 20.0 mi East 12.7 mph 20.7 mph N/A   Mostly Cloudy
12:00 PM 41.0 °F 33.5 °F 35.6 °F 81% 29.81 in 20.0 mi East 13.8 mph 27.6 mph N/A   Overcast
1:00 PM 42.8 °F 34.5 °F 35.6 °F 76% 29.78 in 20.0 mi East 18.4 mph 28.8 mph N/A   Overcast
2:00 PM 41.0 °F 33.1 °F 35.6 °F 81% 29.76 in 20.0 mi ESE 15.0 mph 26.5 mph N/A   Overcast
3:00 PM 41.0 °F 32.8 °F 35.6 °F 81% 29.75 in 20.0 mi East 16.1 mph 25.3 mph N/A   Overcast
3:18 PM - - - N/A% - 20.0 mi East 16.1 mph 25.3 mph N/A Rain Light Rain Showers
3:35 PM - - - N/A% - 20.0 mi East 16.1 mph 26.5 mph N/A   Overcast
4:00 PM 41 °F - 36 °F 77% 29.73 in 19 mi ESE 15.0 mph - - Rain Light Rain Showers
4:00 PM 41.0 °F 33.1 °F 35.6 °F 81% 29.73 in 20.0 mi ESE 15.0 mph 29.9 mph N/A   Overcast
4:19 PM - - - N/A% - 20.0 mi ESE 16.1 mph 24.2 mph N/A Rain Light Rain Showers
5:00 PM 41.0 °F 32.2 °F 37.4 °F 87% 29.72 in 20.0 mi ESE 18.4 mph 25.3 mph N/A Rain Light Rain Showers
6:00 PM 41.0 °F 32.2 °F 37.4 °F 87% 29.72 in 20.0 mi East 18.4 mph 24.2 mph N/A Rain Light Rain Showers
7:00 PM 41.0 °F 32.5 °F 37.4 °F 87% 29.73 in 15.0 mi ESE 17.3 mph 24.2 mph N/A Rain Light Rain Showers
7:29 PM - - - N/A% - 15.0 mi ESE 16.1 mph 23.0 mph N/A   Overcast
8:00 PM 39.2 °F 30.5 °F 35.6 °F 87% 29.73 in 15.0 mi ESE 16.1 mph 24.2 mph N/A   Overcast
9:00 PM 41.0 °F 33.5 °F 35.6 °F 81% 29.74 in 15.0 mi East 13.8 mph - N/A   Overcast
10:00 PM 40 °F - 36 °F 79% 29.75 in 17 mi ESE 15.0 mph - -   Partly Cloudy
10:00 PM 39.2 °F 30.8 °F 35.6 °F 87% 29.75 in 15.0 mi ESE 15.0 mph - N/A   Overcast
11:00 PM 39.2 °F 30.8 °F 35.6 °F 87% 29.76 in 15.0 mi ESE 15.0 mph - N/A   Overcast